EHI
0 0 1 2 3 3 3 3 3 3 3 3 3 3 3 3 3 3 3 3 3 3 3 3 3 3 3 2 1 2 3 3 2 2 1 0 0 0 0 0 0 0 0
0 0 1 2 3 3 3 3 3 3 3 3 3 3 3 3 3 3 3 3 3 3 3 3 3 3 3 2 1 1 2 2 1 1 0 0 0 0 0 0 0 0 0
0 0 1 2 3 3 3 3 3 3 3 3 3 3 3 3 3 3 3 3 3 3 2 3 3 3 2 1 0 0 1 1 0 0 0 0 0 0 0 0 0 0 0
0 0 1 3 3 3 3 3 3 3 3 3 3 3 3 3 3 3 3 3 2 1 1 1 2 2 1 1 0 0 0 0 0 0 0 0 0 0 0 0 0 0 0
0 1 2 3 3 3 3 3 3 3 3 3 3 3 3 3 3 3 2 2 1 0 0 0 1 1 0 0 0 1 1 1 1 0 0 0 1 1 1 2 1 1 1
0 1 2 3 3 3 3 3 3 3 3 3 3 3 2 2 2 1 1 1 0 0 1 1 1 0 0 0 0 1 2 2 1 0 0 0 1 2 2 2 2 2 2
0 0 1 3 3 3 3 3 3 3 3 3 3 1 1 1 1 0 0 0 0 1 2 2 2 1 0 1 1 1 1 1 1 0 0 0 1 2 1 2 3 3 3
0 0 1 2 3 3 3 3 3 3 3 3 3 1 0 0 0 0 0 0 0 1 1 2 1 1 0 1 1 0 0 0 0 0 0 0 0 0 1 2 3 3 3
0 0 0 1 2 2 3 3 3 3 3 3 3 2 1 0 0 1 1 1 0 0 0 0 0 0 1 1 1 1 0 0 0 0 0 1 2 1 0 1 3 3 3
0 0 0 0 1 1 1 2 3 3 3 3 3 3 2 1 1 1 2 2 1 1 1 1 1 1 2 2 2 2 1 0 0 0 0 2 4 2 0 1 2 3 3
1 1 0 0 0 0 0 1 1 2 3 3 3 3 3 3 2 2 2 2 2 2 2 2 2 3 3 3 3 3 2 1 0 0 1 3 4 2 1 1 3 3 3
4 3 1 1 1 0 1 1 1 2 3 3 3 3 3 3 3 3 3 3 3 3 3 3 3 3 3 3 3 2 1 1 1 0 4 7 5 2 2 3 3 3 3
5 4 3 2 2 2 2 2 2 3 3 3 3 3 3 3 3 3 3 3 3 3 3 3 3 3 3 3 3 2 1 1 1 1 6 10 7 3 3 3 3 3 3
5 4 3 3 3 3 3 3 3 3 3 3 3 3 3 3 3 2 2 2 2 3 3 3 3 3 3 3 3 3 2 2 2 2 5 7 6 3 3 3 3 3 3
8 5 4 4 3 3 3 3 3 3 3 3 3 3 3 3 2 2 3 3 3 3 3 3 3 3 3 3 3 3 3 3 3 3 4 4 4 3 3 3 3 3 3
9 6 5 5 4 4 4 3 3 4 4 4 5 6 6 5 3 3 4 4 4 3 3 3 3 3 3 3 3 4 4 4 4 4 4 4 4 4 3 3 3 3 3
11 9 8 7 7 8 8 6 5 5 7 8 11 16 17 13 9 8 5 4 5 4 4 3 3 3 3 3 4 4 6 7 7 6 5 5 5 4 4 4 3 3 3
16 19 20 18 17 18 17 14 11 12 17 23 30 36 35 25 19 16 10 6 7 7 5 4 4 3 3 3 4 4 7 11 11 8 5 5 6 4 3 4 4 3 3
23 31 39 42 41 37 34 32 30 31 35 45 53 56 52 40 29 25 18 11 9 9 7 5 5 4 3 3 4 5 7 11 11 7 4 3 4 3 3 4 5 4 3
28 38 53 63 67 65 62 61 59 53 53 61 65 64 59 51 41 34 26 19 13 10 8 6 5 4 3 3 3 4 5 6 6 4 2 1 1 1 2 4 5 5 4
30 40 56 69 78 84 85 84 79 71 67 69 69 63 56 51 45 39 32 25 18 12 8 5 4 3 3 3 3 3 2 2 2 2 1 0 0 0 1 3 5 6 7
31 37 49 62 75 84 89 89 87 82 78 77 74 64 51 42 39 35 30 24 16 10 7 5 4 3 3 3 3 2 1 0 0 1 1 0 0 0 0 1 4 7 8
35 38 44 56 68 77 82 86 87 86 84 81 75 62 46 34 27 23 20 15 9 5 4 4 3 3 3 3 2 2 1 0 0 0 1 0 0 1 0 0 3 5 7
35 40 49 57 65 71 76 80 81 82 81 77 67 54 39 23 13 10 9 6 3 1 1 2 2 3 3 3 2 2 1 1 0 0 0 0 0 0 0 0 1 3 4
25 32 43 53 58 62 68 70 69 71 69 61 49 38 27 14 5 2 1 1 0 0 1 2 3 3 3 3 3 2 1 1 0 0 0 0 0 0 0 0 1 2 2
15 20 30 42 48 53 57 58 59 61 57 45 35 28 20 10 3 1 0 0 0 1 2 3 3 3 3 4 4 2 1 1 0 0 0 0 0 0 0 0 0 1 1
Wind_Speed
14 17 19 15 13 13 13 13 13 13 12 12 12 12 12 11 10 9 8 8 7 8 8 8 8 8 9 9 9 9 9 10 9 9 9 8 7 7 7 6 5 9 9
16 19 20 17 15 14 14 14 13 13 12 12 12 11 11 10 10 9 8 7 6 6 7 7 7 7 7 7 8 8 7 7 7 7 6 8 7 5 4 1 6 8 8
18 19 20 17 16 15 14 14 13 13 12 12 11 11 10 10 9 8 7 7 6 5 5 5 5 6 5 5 6 6 6 5 4 4 5 6 9 6 4 3 2 5 5
18 18 18 18 16 15 14 14 13 12 12 11 10 10 9 9 9 8 7 6 6 5 4 4 4 4 4 4 4 4 4 3 2 4 7 2 5 9 4 4 4 4 5
16 16 17 19 17 15 14 14 13 12 11 10 10 9 9 9 8 8 7 6 5 5 4 3 3 3 3 4 4 3 3 3 3 9 5 3 3 7 4 5 6 7 7
16 16 18 18 17 15 14 13 12 11 11 10 9 8 8 8 8 7 7 6 5 4 4 3 3 3 3 3 4 4 4 5 8 10 6 6 6 7 4 7 9 9 9
16 15 18 18 16 15 14 13 12 11 10 9 9 8 7 7 7 6 6 5 5 4 4 3 3 4 4 4 4 5 5 6 10 8 6 8 6 4 5 8 9 11 12
15 15 17 17 15 14 13 12 12 11 10 9 9 8 8 7 6 6 6 6 5 5 4 4 5 5 5 5 6 6 6 9 10 9 9 9 4 3 7 10 10 11 13
14 13 14 16 15 14 12 12 12 11 10 9 9 8 8 8 8 7 7 6 6 6 6 6 6 6 7 7 7 7 8 9 11 8 9 8 6 6 9 11 11 11 13
12 12 13 14 14 14 14 13 12 11 11 10 9 9 9 9 10 9 10 9 8 7 7 8 8 9 9 9 9 10 9 10 13 12 8 6 9 8 11 12 13 12 12
11 11 12 13 12 12 12 13 14 12 11 11 11 11 10 10 11 11 11 7 7 9 9 10 11 11 11 13 14 12 11 10 11 8 7 3 7 9 13 14 14 13 13
14 13 11 11 12 12 9 10 10 11 11 11 9 10 10 8 6 7 5 6 9 10 11 13 12 12 13 10 12 14 9 10 9 7 6 7 8 11 14 14 14 14 14
14 13 12 10 10 11 8 8 7 7 7 10 11 9 8 6 6 7 5 8 9 11 10 8 9 8 7 6 6 6 8 7 6 6 5 10 10 13 14 13 13 13 14
14 14 13 11 10 10 9 7 7 7 6 7 9 10 8 6 6 5 4 6 5 5 5 6 5 7 8 9 9 9 9 7 7 5 4 8 11 13 14 12 12 13 13
13 13 12 12 11 10 9 7 8 8 7 8 7 8 9 7 7 6 5 5 7 6 6 6 7 7 8 9 8 9 9 9 10 9 5 9 12 13 13 13 12 13 13
13 13 12 13 12 11 9 9 8 8 7 8 8 9 9 8 6 6 6 6 7 7 6 6 8 8 8 7 9 9 10 11 10 10 10 8 13 14 14 14 13 13 13
12 12 12 12 12 12 12 12 9 9 9 9 8 9 9 10 8 7 8 7 7 7 7 7 9 8 8 8 10 10 10 10 10 10 11 9 9 13 16 15 14 14 14
10 10 11 10 12 12 11 10 9 9 9 8 7 8 10 10 10 8 8 8 7 7 7 7 8 8 8 8 9 9 9 9 11 11 11 10 9 9 11 17 16 15 15
10 9 10 10 11 11 12 10 10 8 8 7 7 7 7 9 9 8 7 7 8 7 7 8 7 7 8 9 10 10 11 11 11 12 12 12 11 11 10 10 16 15 16
9 9 10 10 10 10 9 8 8 9 8 7 6 6 7 6 7 6 7 8 8 7 6 7 8 8 8 9 11 11 11 12 12 12 13 13 12 13 13 12 10 12 17
8 9 10 10 10 9 8 8 8 9 8 7 6 7 6 5 4 3 6 6 6 6 7 8 8 9 9 8 10 11 11 13 13 11 11 12 12 12 11 11 10 9 9
6 8 9 11 11 11 10 8 7 7 7 7 6 5 5 5 4 4 5 5 6 6 7 7 7 7 7 6 8 10 9 9 8 9 9 9 10 9 9 11 10 9 8
4 6 7 8 9 11 11 8 6 5 6 6 7 6 7 6 5 5 5 5 5 6 6 6 6 8 7 7 6 7 8 8 8 6 6 7 6 6 7 6 7 7 8
5 5 6 7 7 8 10 10 12 10 10 10 7 6 6 6 6 5 6 6 6 5 5 6 6 5 7 7 6 6 8 8 7 7 6 5 5 6 5 4 4 5 6
7 6 6 6 6 7 9 10 11 11 10 6 6 7 7 6 6 6 6 5 5 5 5 5 4 5 5 6 6 6 7 7 8 7 8 7 6 5 4 5 4 3 3
7 7 6 6 7 7 7 8 10 11 10 8 8 7 7 5 5 6 5 5 5 4 5 5 5 5 4 5 5 5 5 5 5 5 7 7 6 5 5 4 4 3 3
Wind_Direction
152 143 150 158 153 144 136 131 130 132 138 143 146 146 146 146 144 140 137 129 117 107 101 98 97 97 100 103 102 101 102 101 101 101 100 97 95 99 107 127 163 115 111
147 145 153 160 157 149 141 135 132 132 134 139 144 146 146 147 149 148 147 144 133 120 110 105 103 102 104 108 109 109 110 111 111 111 127 137 124 115 118 102 350 92 128
146 147 157 161 159 153 146 141 138 137 137 139 143 147 149 151 152 154 155 154 147 132 120 114 112 110 110 112 114 116 118 121 122 132 225 177 132 141 147 145 103 124 146
149 152 160 159 162 157 152 148 145 144 143 143 146 150 154 156 157 158 158 157 153 143 133 127 124 124 126 127 129 129 131 139 162 226 231 153 144 133 171 179 178 181 181
152 156 152 161 164 160 156 153 151 150 148 147 150 155 160 163 163 162 160 160 160 156 150 143 136 136 146 155 160 166 176 193 226 250 241 236 226 134 187 210 205 206 206
158 160 150 166 166 163 161 158 157 155 154 153 155 159 164 167 169 167 167 169 172 175 178 179 178 175 177 185 190 198 210 222 243 243 239 238 234 151 212 242 229 218 214
163 160 154 168 168 167 166 164 163 162 161 161 162 165 168 171 174 175 178 183 188 197 206 208 208 210 207 214 220 224 230 237 257 265 255 249 246 144 247 264 254 231 218
164 163 151 168 172 172 172 171 171 171 172 173 174 175 178 181 185 189 193 197 203 209 217 222 224 227 228 231 236 238 240 253 251 251 247 250 207 170 257 270 268 246 223
168 165 159 169 176 179 180 181 180 181 183 186 188 189 192 195 199 204 207 213 220 227 233 236 237 238 239 238 238 241 244 250 267 260 253 250 160 199 251 265 267 257 231
173 172 171 173 177 182 183 186 189 190 193 196 201 204 205 208 212 213 217 209 226 242 249 251 250 248 246 244 241 239 243 248 248 250 242 223 162 218 249 258 261 258 240
182 182 183 175 180 188 191 177 189 196 200 205 207 209 216 223 214 203 218 189 229 249 256 258 257 254 252 240 235 236 238 247 249 253 256 171 173 231 249 252 254 253 246
186 187 191 184 184 192 196 176 199 201 196 213 216 207 215 225 240 243 152 203 242 253 259 255 257 255 248 251 225 213 240 241 258 254 239 170 204 240 250 250 249 249 246
189 189 191 191 195 198 197 193 203 209 202 212 220 220 231 236 227 232 224 205 221 234 246 242 241 253 259 262 277 252 257 269 259 255 236 174 211 238 251 251 248 247 245
194 195 191 192 197 210 213 204 210 215 210 220 210 221 223 225 241 243 244 254 244 236 244 265 263 261 269 274 266 265 266 258 259 263 254 196 219 237 249 249 247 248 247
195 199 196 195 200 206 217 225 221 226 224 221 229 218 235 236 233 236 243 251 258 256 248 249 266 278 280 272 270 270 270 270 265 261 255 215 223 235 245 249 245 244 244
199 200 199 199 203 207 214 221 229 232 226 241 228 227 225 237 239 242 239 242 253 259 267 278 277 277 273 279 278 276 273 271 266 265 262 240 217 224 236 244 247 243 239
201 201 201 203 206 207 217 223 229 232 229 230 230 228 229 235 235 241 250 248 252 260 262 262 271 274 271 270 271 272 268 265 266 265 266 267 254 221 218 229 237 240 236
208 204 206 210 207 210 218 227 235 237 237 234 235 230 229 240 244 247 255 256 257 258 261 263 264 269 271 274 277 279 277 271 263 261 259 255 257 259 225 214 224 231 233
214 213 213 216 217 215 218 222 235 241 244 243 240 241 240 246 252 252 259 267 267 261 260 265 266 270 274 276 276 271 270 270 269 263 261 261 255 252 256 217 207 220 228
219 218 218 215 218 217 217 221 231 236 237 238 242 246 250 253 259 260 261 266 271 267 265 263 270 267 271 275 279 281 277 274 269 266 263 259 254 248 245 248 225 216 217
222 221 220 223 216 213 215 217 219 225 229 233 237 245 249 251 254 258 269 269 269 268 271 273 272 272 269 275 279 278 272 262 258 259 260 263 260 254 249 245 243 240 210
231 230 229 225 222 219 220 220 226 232 235 228 224 223 226 234 239 240 252 261 268 275 269 269 272 280 283 278 282 291 286 275 253 250 252 254 261 261 252 240 236 235 243
269 257 251 245 238 235 232 227 226 225 231 226 220 217 216 212 210 212 221 241 252 258 262 269 271 268 279 281 271 278 292 299 321 277 264 263 263 265 259 253 235 232 232
317 301 289 277 266 257 246 237 230 228 231 229 221 214 204 203 206 203 210 222 233 244 254 258 265 275 272 276 274 259 265 286 289 293 276 266 258 251 253 252 243 229 232
333 321 306 293 281 267 257 249 243 242 240 232 215 207 205 199 199 201 200 214 224 236 249 262 266 266 268 274 282 281 278 270 259 267 284 288 279 263 251 242 247 250 243
334 326 313 301 290 278 266 257 249 246 241 230 214 204 198 189 185 196 193 205 222 233 234 243 253 252 271 286 290 291 290 289 291 278 281 290 287 280 273 257 245 242 241